Location: Antoign�
(47.0844°N, 0.1131°W)
Time: 02:49:18
(UTC+00:00)

COSMOS 2428 - Pass Details

Date: 03 March 2021
Orbit: 845 x 858 km, 70.9° (Epoch: 16 April)

Event Time Altitude Azimuth Distance (km) Brightness Sun altitude
Rises 19:16:40 0° 172° (S) 3,391 5.7 -15.7°
Reaches altitude 10° 19:19:23 10° 161° (SSE) 2,461 4.9 -16.2°
Maximum altitude 19:24:08 28° 104° (ESE) 1,527 3.4 -17.0°
Enters shadow 19:24:45 28° 92° (E) 1,549 3.5 -17.1°
